FW6629 Weather Reports


Display with metric or nautical units.
time (UTC)temp
F
wind
direction
speed
MPH
gust
MPH
rain 1hr
in
rain 24hr
in
rain mn
in
humidity
%
barometer
mb
20260509005526 66 125 0.0 2.0 0.00 0.00 0.00 58 1013.1
20260509005028 66 139 0.0 2.0 0.00 0.00 0.00 58 1013.0
20260509004538 66 0 0.0 3.0 0.00 0.00 0.00 57 1013.0
20260509004023 67 136 1.0 3.0 0.00 0.00 0.00 56 1013.1
20260509003524 67 173 1.0 4.0 0.00 0.00 0.00 55 1013.2
20260509003049 67 158 1.0 4.0 0.00 0.00 0.00 54 1013.2
20260509002523 67 156 2.0 7.0 0.00 0.00 0.00 54 1013.1
20260509002023 68 117 2.0 7.0 0.00 0.00 0.00 53 1013.1
20260509001544 68 160 2.0 5.0 0.00 0.00 0.00 53 1013.2
20260509001025 68 129 1.0 3.0 0.00 0.00 0.00 53 1013.2
20260509000524 68 275 2.0 4.0 0.00 0.00 0.00 52 1013.1
20260509000041 69 0 1.0 7.0 0.00 0.00 0.00 51 1012.9
20260508235521 69 0 2.0 7.0 0.00 0.00 0.00 51 1013.1
20260508235025 69 7 2.0 7.0 0.00 0.00 0.00 51 1012.9
20260508234541 69 97 2.0 7.0 0.00 0.00 0.00 51 1012.8
20260508234022 69 191 2.0 6.0 0.00 0.00 0.00 52 1012.8
20260508233526 69 150 2.0 6.0 0.00 0.00 0.00 52 1012.9
20260508233038 70 181 1.0 6.0 0.00 0.00 0.00 51 1012.8
20260508232523 70 168 2.0 5.0 0.00 0.00 0.00 51 1012.8
20260508232023 70 124 2.0 5.0 0.00 0.00 0.00 51 1012.8
20260508231537 70 102 2.0 5.0 0.00 0.00 0.00 48 1012.8
20260508231027 70 177 3.0 5.0 0.00 0.00 0.00 49 1012.8
20260508230524 70 117 2.0 8.0 0.00 0.00 0.00 48 1013.0
20260508230056 70 248 2.0 6.0 0.00 0.00 0.00 49 1013.1
20260508225523 71 176 3.0 7.0 0.00 0.00 0.00 49 1013.1
20260508225023 71 217 3.0 7.0 0.00 0.00 0.00 48 1013.2
20260508224546 71 145 3.0 7.0 0.00 0.00 0.00 48 1013.1
20260508224022 71 148 3.0 9.0 0.00 0.00 0.00 47 1013.2
20260508223523 71 156 4.0 9.0 0.00 0.00 0.00 47 1013.3
20260508223042 71 139 4.0 9.0 0.00 0.00 0.00 46 1013.3
20260508222526 71 149 3.0 9.0 0.00 0.00 0.00 46 1013.3
20260508222023 71 117 4.0 9.0 0.00 0.00 0.00 47 1013.2
20260508221547 71 235 3.0 8.0 0.00 0.00 0.00 47 1013.3
20260508221023 71 145 3.0 8.0 0.00 0.00 0.00 45 1013.2
20260508220524 71 167 3.0 6.0 0.00 0.00 0.00 45 1013.2
20260508220039 72 112 2.0 6.0 0.00 0.00 0.00 45 1013.1
20260508215523 72 115 2.0 6.0 0.00 0.00 0.00 43 1013.1
20260508215024 72 163 1.0 7.0 0.00 0.00 0.00 43 1012.9
20260508214547 72 158 3.0 8.0 0.00 0.00 0.00 44 1013.1
20260508214024 72 178 3.0 8.0 0.00 0.00 0.00 42 1013.1
20260508213524 72 117 5.0 8.0 0.00 0.00 0.00 42 1012.8
20260508213044 72 53 1.0 8.0 0.00 0.00 0.00 43 1012.9
20260508212524 72 90 3.0 8.0 0.00 0.00 0.00 41 1012.9
20260508212024 72 121 4.0 7.0 0.00 0.00 0.00 42 1012.9
20260508211543 72 106 1.0 4.0 0.00 0.00 0.00 41 1012.9
20260508211023 72 133 3.0 8.0 0.00 0.00 0.00 41 1013.1
20260508210523 73 157 4.0 9.0 0.00 0.00 0.00 40 1013.3
20260508210044 73 105 3.0 9.0 0.00 0.00 0.00 39 1013.4
20260508205522 72 50 3.0 6.0 0.00 0.00 0.00 41 1013.4
20260508205023 72 123 2.0 6.0 0.00 0.00 0.00 42 1013.5
20260508204541 72 106 2.0 6.0 0.00 0.00 0.00 40 1013.7
20260508204020 72 100 2.0 6.0 0.00 0.00 0.00 41 1013.8
20260508203522 72 167 3.0 5.0 0.00 0.00 0.00 41 1013.6
20260508203037 73 55 1.0 4.0 0.00 0.00 0.00 40 1013.6
20260508202524 72 156 1.0 8.0 0.00 0.00 0.00 42 1013.4
20260508202023 72 112 3.0 6.0 0.00 0.00 0.00 40 1013.5
20260508201546 72 90 2.0 6.0 0.00 0.00 0.00 45 1013.4
20260508201027 71 148 1.0 3.0 0.00 0.00 0.00 41 1013.4
20260508200523 71 203 1.0 7.0 0.00 0.00 0.00 40 1013.5
20260508200053 71 243 1.0 7.0 0.00 0.00 0.00 40 1013.6
20260508195523 71 192 2.0 5.0 0.00 0.00 0.00 42 1013.6
20260508195023 71 96 1.0 7.0 0.00 0.00 0.00 39 1013.8
20260508194541 71 145 3.0 7.0 0.00 0.00 0.00 39 1013.9
20260508194022 71 102 2.0 7.0 0.00 0.00 0.00 40 1013.9
20260508193526 71 300 2.0 7.0 0.00 0.00 0.00 38 1014.0
20260508193044 71 302 2.0 6.0 0.00 0.00 0.00 37 1014.2
20260508192527 71 129 2.0 7.0 0.00 0.00 0.00 39 1014.3
20260508192024 71 162 3.0 7.0 0.00 0.00 0.00 37 1014.3
20260508191545 71 214 1.0 5.0 0.00 0.00 0.00 36 1014.5
20260508191022 71 106 1.0 5.0 0.00 0.00 0.00 36 1014.6
20260508190524 71 115 3.0 5.0 0.00 0.00 0.00 36 1014.6
20260508190043 71 79 2.0 4.0 0.00 0.00 0.00 38 1014.6
20260508185525 70 33 0.0 3.0 0.00 0.00 0.00 39 1014.7
20260508185021 71 259 1.0 7.0 0.00 0.00 0.00 32 1014.8
20260508184539 71 126 3.0 7.0 0.00 0.00 0.00 34 1014.9
20260508184023 71 114 3.0 7.0 0.00 0.00 0.00 36 1015.0
20260508183522 71 129 1.0 5.0 0.00 0.00 0.00 36 1015.1
20260508183048 72 68 1.0 5.0 0.00 0.00 0.00 36 1015.2
20260508182526 72 183 3.0 7.0 0.00 0.00 0.00 35 1015.4
20260508182021 72 100 1.0 7.0 0.00 0.00 0.00 38 1015.4
20260508181544 72 117 2.0 4.0 0.00 0.00 0.00 39 1015.6
20260508181023 72 96 2.0 4.0 0.00 0.00 0.00 34 1015.7
20260508180525 71 197 2.0 5.0 0.00 0.00 0.00 42 1015.6
20260508180041 70 25 1.0 5.0 0.00 0.00 0.00 39 1015.7
20260508175521 71 216 2.0 7.0 0.00 0.00 0.00 39 1015.6
20260508175023 70 199 3.0 7.0 0.00 0.00 0.00 38 1015.6
20260508174541 70 131 3.0 7.0 0.00 0.00 0.00 41 1015.7
20260508174023 70 98 2.0 8.0 0.00 0.00 0.00 40 1015.8
20260508173524 69 329 2.0 8.0 0.00 0.00 0.00 40 1015.9
20260508173037 70 310 3.0 6.0 0.00 0.00 0.00 44 1016.2
20260508172526 70 262 1.0 4.0 0.00 0.00 0.00 42 1016.1
20260508172020 69 298 1.0 7.0 0.00 0.00 0.00 39 1016.2
20260508171552 70 106 3.0 8.0 0.00 0.00 0.00 44 1016.3
20260508171023 69 52 1.0 8.0 0.00 0.00 0.00 42 1016.4
20260508170523 69 171 2.0 10.0 0.00 0.00 0.00 43 1016.3
20260508170046 69 105 1.0 10.0 0.00 0.00 0.00 45 1016.3
20260508165521 70 150 6.0 10.0 0.00 0.00 0.00 43 1016.4
20260508165023 69 104 1.0 6.0 0.00 0.00 0.00 45 1016.4
20260508164541 68 17 2.0 10.0 0.00 0.00 0.00 42 1016.8
20260508164022 69 121 5.0 10.0 0.00 0.00 0.00 44 1016.8
20260508163523 69 187 2.0 6.0 0.00 0.00 0.00 46 1016.8
20260508163041 69 77 1.0 5.0 0.00 0.00 0.00 45 1017.0
20260508162522 68 51 2.0 6.0 0.00 0.00 0.00 43 1017.1
20260508162023 68 156 3.0 6.0 0.00 0.00 0.00 44 1017.2
20260508161537 68 94 2.0 5.0 0.00 0.00 0.00 45 1017.2
20260508161021 67 332 1.0 3.0 0.00 0.00 0.00 41 1017.2
20260508160522 69 307 1.0 4.0 0.00 0.00 0.00 43 1017.5
20260508160037 69 246 1.0 5.0 0.00 0.00 0.00 43 1017.5
20260508155526 69 91 1.0 5.0 0.00 0.00 0.00 45 1017.5
20260508155023 69 134 1.0 6.0 0.00 0.00 0.00 46 1017.7
20260508154545 68 154 1.0 6.0 0.00 0.00 0.00 48 1017.6
20260508154023 68 47 1.0 5.0 0.00 0.00 0.00 47 1017.5
20260508153523 68 81 1.0 5.0 0.00 0.00 0.00 48 1017.6
20260508153042 68 11 2.0 5.0 0.00 0.00 0.00 48 1017.5
20260508152521 67 76 1.0 5.0 0.00 0.00 0.00 49 1017.7
20260508152023 67 127 2.0 5.0 0.00 0.00 0.00 49 1017.7
20260508151541 66 15 2.0 5.0 0.00 0.00 0.00 53 1017.8
20260508151022 65 137 1.0 2.0 0.00 0.00 0.00 51 1017.8
20260508150522 65 83 0.0 4.0 0.00 0.00 0.00 55 1017.9
20260508150044 65 12 2.0 4.0 0.00 0.00 0.00 58 1017.8
20260508145524 64 283 1.0 2.0 0.00 0.00 0.00 58 1017.8
20260508145023 64 351 1.0 2.0 0.00 0.00 0.00 58 1017.8
20260508144546 63 2 1.0 2.0 0.00 0.00 0.00 59 1017.9
20260508144025 63 52 1.0 2.0 0.00 0.00 0.00 63 1017.9
20260508143526 62 85 0.0 2.0 0.00 0.00 0.00 64 1017.9
20260508143045 61 94 0.0 2.0 0.00 0.00 0.00 67 1018.0
20260508142522 61 136 0.0 2.0 0.00 0.00 0.00 68 1018.1
20260508142022 60 337 1.0 3.0 0.00 0.00 0.00 68 1018.1
20260508141543 59 152 1.0 3.0 0.00 0.00 0.00 71 1018.1
20260508141025 58 167 0.0 3.0 0.00 0.00 0.00 73 1018.1
20260508140523 58 5 1.0 3.0 0.00 0.00 0.00 74 1018.1
20260508140041 57 0 0.0 2.0 0.00 0.00 0.00 74 1018.1
20260508135522 56 67 1.0 3.0 0.00 0.00 0.00 79 1018.2
20260508135028 55 82 1.0 5.0 0.00 0.00 0.00 81 1018.1
20260508134540 54 342 2.0 5.0 0.00 0.00 0.00 84 1018.1
20260508134022 53 0 0.0 4.0 0.00 0.00 0.00 88 1018.0
20260508133528 53 62 1.0 4.0 0.00 0.00 0.00 90 1018.0
20260508133043 52 341 0.0 3.0 0.00 0.00 0.00 90 1018.0
20260508132521 52 358 1.0 2.0 0.00 0.00 0.00 91 1017.9
20260508132022 51 29 0.0 2.0 0.00 0.00 0.00 91 1017.9
20260508131543 51 0 0.0 2.0 0.00 0.00 0.00 91 1017.9
20260508131025 51 0 0.0 2.0 0.00 0.00 0.00 91 1018.0
20260508130522 51 162 1.0 2.0 0.00 0.00 0.00 91 1018.1
20260508130105 50 0 0.0 2.0 0.00 0.00 0.00 91 1018.1
20260508125522 50 110 0.0 2.0 0.00 0.00 0.00 91 1018.0
20260508125023 50 109 1.0 2.0 0.00 0.00 0.00 91 1018.1
20260508124543 49 116 1.0 3.0 0.00 0.00 0.00 92 1018.3
20260508124023 49 115 2.0 3.0 0.00 0.00 0.00 91 1018.3
20260508123524 49 142 1.0 2.0 0.00 0.00 0.00 92 1018.3
20260508123037 48 100 1.0 2.0 0.00 0.00 0.00 91 1018.2
20260508122522 48 0 0.0 2.0 0.00 0.00 0.00 92 1018.2
20260508122022 47 86 0.0 2.0 0.00 0.00 0.00 91 1018.1
20260508121537 47 86 0.0 2.0 0.00 0.00 0.00 91 1018.0
20260508121023 47 86 0.0 1.0 0.00 0.00 0.00 91 1017.8
20260508120522 46 0 0.0 2.0 0.00 0.00 0.00 91 1017.8
20260508120037 46 0 0.0 2.0 0.00 0.00 0.00 91 1017.7
20260508115522 45 0 0.0 2.0 0.00 0.01 0.00 91 1017.8
20260508115023 45 0 0.0 0.0 0.00 0.01 0.00 91 1017.6
20260508114543 45 0 0.0 2.0 0.00 0.01 0.00 91 1017.6
20260508114023 45 0 0.0 2.0 0.00 0.01 0.00 91 1017.6
20260508113523 45 86 0.0 2.0 0.00 0.01 0.00 91 1017.5
20260508113044 45 0 0.0 2.0 0.00 0.01 0.00 90 1017.2
20260508112520 44 0 0.0 2.0 0.00 0.01 0.00 90 1017.0
20260508112022 44 0 0.0 2.0 0.00 0.01 0.00 90 1017.0
20260508111537 44 0 0.0 2.0 0.00 0.01 0.00 90 1016.9
20260508111023 44 0 0.0 2.0 0.00 0.01 0.00 90 1016.7
20260508110523 44 0 0.0 1.0 0.00 0.01 0.00 90 1016.8
20260508110037 44 86 0.0 2.0 0.00 0.01 0.00 90 1016.6
20260508105524 44 54 0.0 2.0 0.00 0.07 0.00 90 1016.7
20260508105022 44 0 0.0 1.0 0.00 0.07 0.00 90 1016.7
20260508104603 45 0 0.0 2.0 0.00 0.07 0.00 90 1016.5
20260508104021 45 0 0.0 2.0 0.00 0.07 0.00 90 1016.5
20260508103522 45 45 0.0 1.0 0.00 0.07 0.00 90 1016.4
20260508103045 45 0 0.0 2.0 0.00 0.07 0.00 90 1016.4
20260508102523 45 0 0.0 2.0 0.00 0.07 0.00 90 1016.2
20260508102024 45 0 0.0 2.0 0.00 0.07 0.00 90 1016.3
20260508101541 45 46 0.0 2.0 0.00 0.07 0.00 90 1016.1
20260508101021 45 0 0.0 1.0 0.00 0.07 0.00 90 1015.9
20260508100521 45 0 0.0 0.0 0.00 0.07 0.00 90 1015.9
20260508100040 45 0 0.0 0.0 0.00 0.07 0.00 90 1015.9
20260508095523 46 0 0.0 0.0 0.00 0.23 0.00 90 1015.8
20260508095023 46 0 0.0 0.0 0.00 0.23 0.00 90 1015.9
20260508094544 46 0 0.0 2.0 0.00 0.23 0.00 90 1016.1
20260508094022 46 0 0.0 2.0 0.00 0.23 0.00 90 1015.9
20260508093521 46 50 0.0 2.0 0.00 0.23 0.00 90 1015.8
20260508093044 46 0 0.0 2.0 0.00 0.23 0.00 90 1015.8
20260508092523 46 50 0.0 2.0 0.00 0.23 0.00 90 1015.8
20260508092020 46 0 0.0 2.0 0.00 0.23 0.00 90 1015.9
20260508091544 46 29 0.0 2.0 0.00 0.23 0.00 90 1015.7
20260508091022 47 0 0.0 1.0 0.00 0.23 0.00 90 1015.8
20260508090521 47 0 0.0 1.0 0.00 0.23 0.00 90 1015.8
20260508090057 47 0 0.0 0.0 0.00 0.23 0.00 90 1015.7
20260508085520 47 0 0.0 0.0 0.00 0.32 0.00 90 1015.7
20260508085022 47 0 0.0 2.0 0.00 0.32 0.00 90 1015.7
20260508084541 47 0 0.0 2.0 0.00 0.32 0.00 90 1015.7
20260508084023 47 355 0.0 2.0 0.00 0.32 0.00 90 1015.6
20260508083527 47 355 0.0 2.0 0.00 0.32 0.00 90 1015.6
20260508083051 47 0 0.0 2.0 0.00 0.32 0.00 90 1015.6
20260508082521 47 0 0.0 2.0 0.00 0.32 0.00 90 1015.6
20260508082020 47 355 0.0 1.0 0.00 0.32 0.00 90 1015.6
20260508081555 47 355 1.0 2.0 0.00 0.32 0.00 90 1015.6
20260508081020 47 355 1.0 1.0 0.00 0.32 0.00 89 1015.7
20260508080523 47 22 0.0 1.0 0.00 0.32 0.00 89 1015.6
20260508080043 48 0 0.0 0.0 0.00 0.32 0.00 89 1015.7
20260508075521 48 0 0.0 0.0 0.00 0.32 0.00 89 1015.6
20260508075026 48 0 0.0 0.0 0.00 0.32 0.00 89 1015.7
20260508074542 48 0 0.0 0.0 0.00 0.32 0.00 89 1015.7
20260508074021 48 0 0.0 2.0 0.00 0.32 0.00 89 1015.8
20260508073523 48 0 0.0 2.0 0.00 0.32 0.00 89 1015.9
20260508073037 48 0 0.0 2.0 0.00 0.32 0.00 89 1015.8
20260508072523 48 119 0.0 2.0 0.00 0.32 0.00 89 1015.8
20260508072021 48 0 0.0 2.0 0.00 0.32 0.00 89 1015.9
20260508071537 48 0 0.0 2.0 0.00 0.32 0.00 89 1015.9
20260508071020 48 121 0.0 1.0 0.00 0.32 0.00 89 1015.8
20260508070520 49 0 0.0 1.0 0.00 0.32 0.00 89 1016.0
20260508070134 49 0 0.0 0.0 0.00 0.32 0.00 89 1016.1
20260508065521 49 0 0.0 0.0 0.00 0.32 0.00 89 1016.0
20260508065022 49 0 0.0 2.0 0.00 0.32 0.00 89 1015.9
20260508064542 49 0 0.0 2.0 0.00 0.32 0.00 89 1016.1
20260508064020 49 0 0.0 2.0 0.00 0.32 0.00 89 1016.2
20260508063523 49 126 0.0 1.0 0.00 0.32 0.00 89 1016.1
20260508063038 49 0 0.0 2.0 0.00 0.32 0.00 89 1016.2
20260508062525 50 0 0.0 2.0 0.00 0.32 0.00 89 1016.2
20260508062022 50 133 1.0 2.0 0.00 0.32 0.00 89 1016.2
20260508061542 50 130 1.0 2.0 0.00 0.32 0.00 89 1016.3
20260508061020 50 130 0.0 2.0 0.00 0.32 0.00 88 1016.3
20260508060524 50 0 0.0 2.0 0.00 0.32 0.00 88 1016.3
20260508060045 50 0 0.0 0.0 0.00 0.32 0.00 88 1016.4
20260508055520 50 0 0.0 2.0 0.00 0.32 0.00 88 1016.3
20260508055021 50 0 0.0 2.0 0.00 0.32 0.00 88 1016.2
20260508054544 50 130 1.0 2.0 0.00 0.32 0.00 88 1016.2
20260508054020 51 0 0.0 2.0 0.00 0.32 0.00 88 1016.3
20260508053522 51 129 0.0 1.0 0.00 0.32 0.00 88 1016.2
20260508053047 51 0 0.0 0.0 0.00 0.32 0.00 88 1016.1
20260508052522 51 0 0.0 2.0 0.00 0.32 0.00 88 1016.2
20260508052023 51 0 0.0 2.0 0.00 0.32 0.00 88 1016.2
20260508051542 51 129 0.0 2.0 0.00 0.32 0.00 87 1016.0
20260508051023 51 0 0.0 2.0 0.00 0.32 0.00 87 1015.8
20260508050525 51 0 0.0 2.0 0.00 0.32 0.00 87 1015.8
20260508050037 51 0 0.0 0.0 0.00 0.32 0.00 87 1015.8
20260508045521 51 0 0.0 1.0 0.00 0.41 0.00 87 1015.9
20260508045023 52 0 0.0 1.0 0.00 0.41 0.00 87 1015.9
20260508044538 52 129 0.0 2.0 0.00 0.41 0.00 86 1015.9
20260508044023 52 129 0.0 2.0 0.00 0.41 0.00 86 1015.9
20260508043522 52 0 0.0 2.0 0.00 0.41 0.00 86 1015.8
20260508043058 52 178 0.0 2.0 0.00 0.41 0.00 86 1015.8
20260508042523 52 0 0.0 2.0 0.00 0.41 0.00 86 1015.8
20260508042023 53 0 0.0 2.0 0.00 0.41 0.00 86 1015.8
20260508041541 53 129 1.0 2.0 0.00 0.41 0.00 86 1016.0
20260508041021 53 106 1.0 2.0 0.00 0.41 0.00 85 1015.7
20260508040523 53 0 0.0 2.0 0.00 0.41 0.00 85 1015.8
20260508040040 53 355 1.0 2.0 0.00 0.41 0.00 85 1015.7
20260508035521 53 318 1.0 2.0 0.00 0.44 0.41 84 1015.7
20260508035022 54 313 0.0 2.0 0.00 0.44 0.41 84 1015.8
20260508034537 54 330 1.0 2.0 0.00 0.44 0.41 84 1015.7
20260508034023 54 358 0.0 2.0 0.00 0.44 0.41 83 1015.7
20260508033522 54 0 0.0 2.0 0.00 0.44 0.41 83 1015.7
20260508033038 54 0 0.0 2.0 0.00 0.44 0.41 83 1015.7
20260508032523 55 0 0.0 1.0 0.00 0.44 0.41 83 1015.7
20260508032024 55 0 0.0 2.0 0.00 0.44 0.41 83 1015.6
20260508031541 55 0 0.0 2.0 0.00 0.44 0.41 83 1015.5
20260508031022 55 350 1.0 2.0 0.00 0.44 0.41 83 1015.6
20260508030524 55 355 1.0 2.0 0.00 0.44 0.41 82 1015.5
20260508030051 55 0 0.0 2.0 0.00 0.44 0.41 81 1015.3
20260508025520 56 342 0.0 2.0 0.00 0.50 0.41 81 1015.2
20260508025021 56 0 0.0 2.0 0.00 0.50 0.41 80 1015.2
20260508024541 56 137 1.0 2.0 0.00 0.50 0.41 80 1015.4
20260508024022 56 137 1.0 2.0 0.00 0.50 0.41 79 1015.4
20260508023521 57 124 1.0 2.0 0.00 0.50 0.41 78 1015.4
20260508023044 57 111 0.0 2.0 0.00 0.50 0.41 77 1015.4
20260508022522 58 0 0.0 2.0 0.00 0.50 0.41 76 1015.3
20260508022022 58 54 0.0 2.0 0.00 0.50 0.41 76 1015.2
20260508021538 58 54 0.0 2.0 0.00 0.50 0.41 74 1015.3
20260508021024 59 0 0.0 0.0 0.00 0.50 0.41 73 1015.3
20260508020526 59 0 0.0 1.0 0.00 0.50 0.41 72 1015.3
20260508020037 59 0 0.0 2.0 0.00 0.50 0.41 71 1014.9
20260508015523 60 67 0.0 2.0 0.00 0.50 0.41 70 1014.8
20260508015020 60 128 0.0 2.0 0.00 0.50 0.41 70 1015.0
20260508014547 61 0 0.0 2.0 0.00 0.50 0.41 69 1014.7
20260508014024 61 0 0.0 0.0 0.00 0.50 0.41 69 1014.7
20260508013522 61 0 0.0 1.0 0.00 0.50 0.41 67 1014.6
20260508013044 62 0 0.0 1.0 0.00 0.50 0.41 67 1014.5
20260508012520 62 0 0.0 2.0 0.00 0.50 0.41 66 1014.5
20260508012020 62 132 1.0 2.0 0.00 0.50 0.41 66 1014.5
20260508011543 62 117 1.0 3.0 0.00 0.50 0.41 65 1014.3
20260508011023 63 0 0.0 4.0 0.00 0.50 0.41 61 1014.3
20260508010523 63 0 1.0 4.0 0.00 0.50 0.41 61 1014.2
20260508010042 63 5 2.0 4.0 0.00 0.50 0.41 60 1014.1